| time (UTC) | temp F | wind direction | speed MPH | gust MPH | rain 1hr in | rain 24hr in | rain mn in | humidity % | barometer mb |
| 20260905230530 | 93 | 360 | 1.0 | 8.0 | 0.00 | 0.00 | 0.00 | 42 | 1011.4 |
| 20260905230029 | 93 | 360 | 3.0 | 8.0 | 0.00 | 0.00 | 0.00 | 41 | 1011.5 |
| 20260905225532 | 93 | 360 | 1.0 | 8.0 | 0.00 | 0.00 | 0.00 | 41 | 1011.6 |
| 20260905225028 | 93 | 360 | 2.0 | 7.0 | 0.00 | 0.00 | 0.00 | 41 | 1011.5 |
| 20260905224527 | 94 | 90 | 3.0 | 11.0 | 0.00 | 0.00 | 0.00 | 40 | 1011.6 |
| 20260905224028 | 94 | 90 | 5.0 | 15.0 | 0.00 | 0.00 | 0.00 | 38 | 1011.8 |
| 20260905223526 | 95 | 76 | 7.0 | 15.0 | 0.00 | 0.00 | 0.00 | 38 | 1011.7 |
| 20260905223026 | 95 | 101 | 3.0 | 9.0 | 0.00 | 0.00 | 0.00 | 40 | 1011.8 |
| 20260905222527 | 94 | 98 | 0.0 | 7.0 | 0.00 | 0.00 | 0.00 | 39 | 1011.7 |
| 20260905222025 | 94 | 98 | 0.0 | 8.0 | 0.00 | 0.00 | 0.00 | 39 | 1011.7 |
| 20260905221524 | 94 | 94 | 2.0 | 8.0 | 0.00 | 0.00 | 0.00 | 37 | 1011.8 |
| 20260905221023 | 94 | 105 | 3.0 | 8.0 | 0.00 | 0.00 | 0.00 | 39 | 1011.8 |
| 20260905220523 | 93 | 101 | 3.0 | 8.0 | 0.00 | 0.00 | 0.00 | 39 | 1011.8 |
| 20260905220023 | 93 | 120 | 0.0 | 7.0 | 0.00 | 0.00 | 0.00 | 41 | 1011.8 |
| 20260905215523 | 94 | 121 | 2.0 | 10.0 | 0.00 | 0.00 | 0.00 | 40 | 1011.8 |
| 20260905215028 | 95 | 109 | 1.0 | 10.0 | 0.00 | 0.00 | 0.00 | 39 | 1011.8 |
| 20260905214525 | 96 | 108 | 3.0 | 9.0 | 0.00 | 0.00 | 0.00 | 38 | 1011.8 |
| 20260905214022 | 96 | 115 | 4.0 | 11.0 | 0.00 | 0.00 | 0.00 | 38 | 1011.8 |
| 20260905213522 | 97 | 65 | 4.0 | 11.0 | 0.00 | 0.00 | 0.00 | 37 | 1011.9 |
| 20260905213020 | 97 | 102 | 2.0 | 8.0 | 0.00 | 0.00 | 0.00 | 37 | 1011.9 |
| 20260905212520 | 96 | 80 | 1.0 | 8.0 | 0.00 | 0.00 | 0.00 | 38 | 1011.9 |
| 20260905212020 | 96 | 117 | 2.0 | 7.0 | 0.00 | 0.00 | 0.00 | 38 | 1012.0 |
| 20260905211519 | 96 | 121 | 0.0 | 8.0 | 0.00 | 0.00 | 0.00 | 37 | 1012.0 |
| 20260905211019 | 96 | 92 | 3.0 | 8.0 | 0.00 | 0.00 | 0.00 | 36 | 1012.0 |
| 20260905210519 | 95 | 323 | 0.0 | 5.0 | 0.00 | 0.00 | 0.00 | 37 | 1012.0 |
| 20260905210018 | 95 | 91 | 1.0 | 10.0 | 0.00 | 0.00 | 0.00 | 39 | 1012.0 |
| 20260905205517 | 95 | 99 | 4.0 | 10.0 | 0.00 | 0.00 | 0.00 | 38 | 1012.1 |
| 20260905205016 | 96 | 121 | 3.0 | 13.0 | 0.00 | 0.00 | 0.00 | 38 | 1012.2 |
| 20260905204515 | 96 | 109 | 2.0 | 13.0 | 0.00 | 0.00 | 0.00 | 39 | 1012.3 |
| 20260905204014 | 95 | 88 | 4.0 | 9.0 | 0.00 | 0.00 | 0.00 | 39 | 1012.4 |
| 20260905203513 | 94 | 104 | 1.0 | 6.0 | 0.00 | 0.00 | 0.00 | 38 | 1012.5 |
| 20260905203013 | 92 | 99 | 0.0 | 6.0 | 0.00 | 0.00 | 0.00 | 43 | 1012.6 |
| 20260905202516 | 92 | 99 | 1.0 | 8.0 | 0.00 | 0.00 | 0.00 | 42 | 1012.8 |
| 20260905202011 | 93 | 99 | 3.0 | 13.0 | 0.00 | 0.00 | 0.00 | 43 | 1012.9 |
| 20260905201511 | 94 | 96 | 5.0 | 13.0 | 0.00 | 0.00 | 0.00 | 43 | 1012.9 |
| 20260905201009 | 94 | 142 | 0.0 | 5.0 | 0.00 | 0.00 | 0.00 | 44 | 1013.0 |
| 20260905200509 | 94 | 142 | 1.0 | 15.0 | 0.00 | 0.00 | 0.00 | 44 | 1013.1 |
| 20260905200008 | 96 | 84 | 2.0 | 15.0 | 0.00 | 0.00 | 0.00 | 42 | 1013.1 |
| 20260905195506 | 96 | 109 | 4.0 | 10.0 | 0.00 | 0.00 | 0.00 | 43 | 1013.2 |
| 20260905195008 | 95 | 137 | 4.0 | 10.0 | 0.00 | 0.00 | 0.00 | 44 | 1013.3 |
| 20260905194506 | 93 | 98 | 2.0 | 8.0 | 0.00 | 0.00 | 0.00 | 48 | 1013.2 |
| 20260905194004 | 91 | 76 | 2.0 | 9.0 | 0.00 | 0.00 | 0.00 | 52 | 1013.3 |
| 20260905193502 | 91 | 94 | 4.0 | 9.0 | 0.00 | 0.00 | 0.00 | 50 | 1013.6 |
| 20260905193006 | 92 | 99 | 4.0 | 10.0 | 0.00 | 0.00 | 0.00 | 49 | 1013.7 |
| 20260905192601 | 93 | 93 | 2.0 | 10.0 | 0.00 | 0.00 | 0.00 | 49 | 1013.8 |
| 20260905192059 | 93 | 111 | 2.0 | 10.0 | 0.00 | 0.00 | 0.00 | 48 | 1014.0 |
| 20260905191603 | 95 | 100 | 3.0 | 9.0 | 0.00 | 0.00 | 0.00 | 46 | 1014.0 |
| 20260905191058 | 95 | 183 | 0.0 | 4.0 | 0.00 | 0.00 | 0.00 | 46 | 1014.0 |
| 20260905190556 | 93 | 238 | 0.0 | 5.0 | 0.00 | 0.00 | 0.00 | 48 | 1014.1 |
| 20260905190055 | 92 | 248 | 1.0 | 5.0 | 0.00 | 0.00 | 0.00 | 50 | 1014.2 |
| 20260905185556 | 92 | 135 | 0.0 | 5.0 | 0.00 | 0.00 | 0.00 | 48 | 1014.3 |
| 20260905185054 | 94 | 135 | 0.0 | 6.0 | 0.00 | 0.00 | 0.00 | 46 | 1014.4 |
| 20260905184612 | 95 | 134 | 3.0 | 6.0 | 0.00 | 0.00 | 0.00 | 46 | 1014.5 |
| 20260905184053 | 94 | 109 | 1.0 | 9.0 | 0.00 | 0.00 | 0.00 | 48 | 1014.6 |
| 20260905183552 | 93 | 95 | 3.0 | 9.0 | 0.00 | 0.00 | 0.00 | 49 | 1014.7 |
| 20260905183053 | 93 | 134 | 1.0 | 5.0 | 0.00 | 0.00 | 0.00 | 46 | 1014.8 |
| 20260905182551 | 93 | 134 | 3.0 | 5.0 | 0.00 | 0.00 | 0.00 | 48 | 1014.8 |
| 20260905182051 | 91 | 138 | 0.0 | 4.0 | 0.00 | 0.00 | 0.00 | 51 | 1014.8 |
| 20260905181557 | 93 | 138 | 0.0 | 6.0 | 0.00 | 0.00 | 0.00 | 48 | 1014.9 |
| 20260905181049 | 94 | 142 | 2.0 | 6.0 | 0.00 | 0.00 | 0.00 | 47 | 1014.9 |
| 20260905180548 | 93 | 128 | 0.0 | 4.0 | 0.00 | 0.00 | 0.00 | 49 | 1015.0 |
| 20260905180051 | 93 | 128 | 1.0 | 7.0 | 0.00 | 0.00 | 0.00 | 49 | 1015.2 |
| 20260905175545 | 93 | 128 | 1.0 | 7.0 | 0.00 | 0.00 | 0.00 | 46 | 1015.2 |
| 20260905175044 | 93 | 133 | 2.0 | 5.0 | 0.00 | 0.00 | 0.00 | 48 | 1015.2 |
| 20260905174543 | 93 | 135 | 2.0 | 5.0 | 0.00 | 0.00 | 0.00 | 45 | 1015.5 |
| 20260905174042 | 93 | 135 | 0.0 | 6.0 | 0.00 | 0.00 | 0.00 | 50 | 1015.5 |
| 20260905173541 | 93 | 136 | 2.0 | 6.0 | 0.00 | 0.00 | 0.00 | 49 | 1015.4 |
| 20260905173039 | 92 | 140 | 0.0 | 5.0 | 0.00 | 0.00 | 0.00 | 50 | 1015.4 |
| 20260905172538 | 92 | 140 | 1.0 | 7.0 | 0.00 | 0.00 | 0.00 | 51 | 1015.5 |
| 20260905172041 | 91 | 140 | 0.0 | 9.0 | 0.00 | 0.00 | 0.00 | 52 | 1015.5 |
| 20260905171535 | 90 | 144 | 2.0 | 9.0 | 0.00 | 0.00 | 0.00 | 54 | 1015.5 |
| 20260905171033 | 90 | 98 | 1.0 | 9.0 | 0.00 | 0.00 | 0.00 | 54 | 1015.5 |
| 20260905170532 | 89 | 140 | 0.0 | 3.0 | 0.00 | 0.00 | 0.00 | 60 | 1015.7 |
| 20260905170033 | 89 | 140 | 0.0 | 3.0 | 0.00 | 0.00 | 0.00 | 59 | 1015.7 |
| 20260905165531 | 89 | 140 | 0.0 | 4.0 | 0.00 | 0.00 | 0.00 | 59 | 1015.8 |
| 20260905165033 | 87 | 140 | 1.0 | 5.0 | 0.00 | 0.00 | 0.00 | 61 | 1015.8 |
| 20260905164531 | 86 | 140 | 0.0 | 5.0 | 0.00 | 0.00 | 0.00 | 62 | 1015.9 |
| 20260905164030 | 86 | 140 | 2.0 | 5.0 | 0.00 | 0.00 | 0.00 | 61 | 1015.9 |
| 20260905163529 | 87 | 140 | 1.0 | 5.0 | 0.00 | 0.00 | 0.00 | 60 | 1016.0 |
| 20260905163029 | 87 | 140 | 0.0 | 5.0 | 0.00 | 0.00 | 0.00 | 59 | 1016.0 |
| 20260905162530 | 88 | 140 | 1.0 | 9.0 | 0.00 | 0.00 | 0.00 | 57 | 1016.0 |
| 20260905162027 | 89 | 138 | 3.0 | 9.0 | 0.00 | 0.00 | 0.00 | 58 | 1016.0 |
| 20260905161526 | 89 | 133 | 1.0 | 7.0 | 0.00 | 0.00 | 0.00 | 58 | 1016.0 |
| 20260905161026 | 88 | 132 | 2.0 | 7.0 | 0.00 | 0.00 | 0.00 | 60 | 1016.1 |
| 20260905160522 | 87 | 135 | 1.0 | 6.0 | 0.00 | 0.00 | 0.00 | 62 | 1016.0 |
| 20260905160027 | 87 | 132 | 1.0 | 7.0 | 0.00 | 0.00 | 0.00 | 62 | 1016.0 |
| 20260905155521 | 86 | 130 | 2.0 | 7.0 | 0.00 | 0.00 | 0.00 | 62 | 1016.0 |
| 20260905155018 | 85 | 127 | 0.0 | 8.0 | 0.00 | 0.00 | 0.00 | 64 | 1016.0 |
| 20260905154518 | 85 | 127 | 2.0 | 8.0 | 0.00 | 0.00 | 0.00 | 64 | 1016.1 |
| 20260905154017 | 85 | 127 | 2.0 | 6.0 | 0.00 | 0.00 | 0.00 | 65 | 1015.9 |
| 20260905153517 | 84 | 132 | 1.0 | 6.0 | 0.00 | 0.00 | 0.00 | 67 | 1015.9 |
| 20260905153014 | 83 | 129 | 0.0 | 5.0 | 0.00 | 0.00 | 0.00 | 69 | 1015.8 |
| 20260905152514 | 82 | 129 | 0.0 | 5.0 | 0.00 | 0.00 | 0.00 | 69 | 1015.9 |
| 20260905152013 | 82 | 128 | 0.0 | 5.0 | 0.00 | 0.00 | 0.00 | 69 | 1015.9 |
| 20260905151513 | 82 | 128 | 0.0 | 5.0 | 0.00 | 0.00 | 0.00 | 68 | 1015.8 |
| 20260905151015 | 83 | 128 | 0.0 | 4.0 | 0.00 | 0.00 | 0.00 | 68 | 1015.8 |
| 20260905150511 | 83 | 127 | 0.0 | 6.0 | 0.00 | 0.00 | 0.00 | 70 | 1015.8 |
| 20260905150010 | 82 | 127 | 1.0 | 6.0 | 0.00 | 0.00 | 0.00 | 70 | 1015.8 |
| 20260905145509 | 82 | 123 | 0.0 | 2.0 | 0.00 | 0.00 | 0.00 | 70 | 1015.8 |
| 20260905145010 | 82 | 123 | 0.0 | 4.0 | 0.00 | 0.00 | 0.00 | 70 | 1015.7 |
| 20260905144508 | 82 | 123 | 0.0 | 4.0 | 0.00 | 0.00 | 0.00 | 70 | 1015.7 |
| 20260905144006 | 82 | 123 | 0.0 | 2.0 | 0.00 | 0.00 | 0.00 | 71 | 1015.8 |
| 20260905143507 | 81 | 123 | 0.0 | 3.0 | 0.00 | 0.00 | 0.00 | 71 | 1015.8 |
| 20260905143003 | 81 | 123 | 0.0 | 4.0 | 0.00 | 0.00 | 0.00 | 70 | 1015.8 |
| 20260905142503 | 80 | 123 | 0.0 | 4.0 | 0.00 | 0.00 | 0.00 | 69 | 1015.7 |
| 20260905142001 | 80 | 123 | 1.0 | 4.0 | 0.00 | 0.00 | 0.00 | 67 | 1015.7 |
| 20260905141600 | 79 | 123 | 1.0 | 4.0 | 0.00 | 0.00 | 0.00 | 66 | 1015.7 |
| 20260905141058 | 79 | 123 | 0.0 | 4.0 | 0.00 | 0.00 | 0.00 | 62 | 1015.7 |
| 20260905140556 | 78 | 123 | 0.0 | 4.0 | 0.00 | 0.00 | 0.00 | 61 | 1015.6 |
| 20260905140056 | 78 | 123 | 0.0 | 4.0 | 0.00 | 0.00 | 0.00 | 58 | 1015.6 |
| 20260905135556 | 77 | 125 | 1.0 | 4.0 | 0.00 | 0.00 | 0.00 | 54 | 1015.5 |
| 20260905135054 | 77 | 125 | 0.0 | 5.0 | 0.00 | 0.00 | 0.00 | 52 | 1015.4 |
| 20260905134554 | 77 | 127 | 0.0 | 3.0 | 0.00 | 0.00 | 0.00 | 51 | 1015.3 |
| 20260905134052 | 77 | 127 | 0.0 | 2.0 | 0.00 | 0.00 | 0.00 | 50 | 1015.3 |
| 20260905133551 | 76 | 127 | 0.0 | 1.0 | 0.00 | 0.00 | 0.00 | 50 | 1015.3 |
| 20260905133052 | 76 | 127 | 0.0 | 2.0 | 0.00 | 0.00 | 0.00 | 50 | 1015.2 |
| 20260905132551 | 76 | 127 | 0.0 | 2.0 | 0.00 | 0.00 | 0.00 | 50 | 1015.2 |
| 20260905132050 | 76 | 127 | 0.0 | 1.0 | 0.00 | 0.00 | 0.00 | 50 | 1015.2 |
| 20260905131550 | 76 | 127 | 0.0 | 0.0 | 0.00 | 0.00 | 0.00 | 51 | 1015.3 |
| 20260905131050 | 75 | 127 | 0.0 | 0.0 | 0.00 | 0.00 | 0.00 | 52 | 1015.2 |
| 20260905130548 | 75 | 127 | 0.0 | 0.0 | 0.00 | 0.00 | 0.00 | 52 | 1015.1 |
| 20260905130049 | 75 | 127 | 0.0 | 0.0 | 0.00 | 0.00 | 0.00 | 53 | 1015.0 |
| 20260905125546 | 75 | 127 | 0.0 | 0.0 | 0.00 | 0.00 | 0.00 | 53 | 1014.9 |
| 20260905125044 | 75 | 127 | 0.0 | 0.0 | 0.00 | 0.00 | 0.00 | 54 | 1014.9 |
| 20260905124543 | 74 | 127 | 0.0 | 0.0 | 0.00 | 0.00 | 0.00 | 55 | 1014.8 |
| 20260905124042 | 74 | 127 | 0.0 | 0.0 | 0.00 | 0.00 | 0.00 | 55 | 1014.8 |
| 20260905123542 | 74 | 127 | 0.0 | 0.0 | 0.00 | 0.00 | 0.00 | 56 | 1014.8 |
| 20260905123041 | 74 | 127 | 0.0 | 0.0 | 0.00 | 0.00 | 0.00 | 56 | 1014.7 |
| 20260905122540 | 74 | 127 | 0.0 | 0.0 | 0.00 | 0.00 | 0.00 | 57 | 1014.7 |
| 20260905122040 | 74 | 127 | 0.0 | 0.0 | 0.00 | 0.00 | 0.00 | 58 | 1014.7 |
| 20260905121539 | 74 | 127 | 0.0 | 0.0 | 0.00 | 0.00 | 0.00 | 58 | 1014.6 |
| 20260905121040 | 74 | 127 | 0.0 | 0.0 | 0.00 | 0.00 | 0.00 | 59 | 1014.5 |
| 20260905120539 | 74 | 127 | 0.0 | 0.0 | 0.00 | 0.00 | 0.00 | 58 | 1014.4 |
| 20260905120045 | 74 | 127 | 0.0 | 0.0 | 0.00 | 0.00 | 0.00 | 58 | 1014.6 |
| 20260905115541 | 75 | 127 | 0.0 | 0.0 | 0.00 | 0.00 | 0.00 | 58 | 1014.6 |
| 20260905115039 | 75 | 127 | 0.0 | 0.0 | 0.00 | 0.00 | 0.00 | 58 | 1014.6 |
| 20260905114538 | 75 | 127 | 0.0 | 0.0 | 0.00 | 0.00 | 0.00 | 58 | 1014.6 |
| 20260905114035 | 75 | 127 | 0.0 | 0.0 | 0.00 | 0.00 | 0.00 | 59 | 1014.6 |
| 20260905113536 | 75 | 127 | 0.0 | 0.0 | 0.00 | 0.00 | 0.00 | 59 | 1014.6 |
| 20260905113046 | 75 | 127 | 0.0 | 0.0 | 0.00 | 0.00 | 0.00 | 59 | 1014.5 |
| 20260905112534 | 75 | 127 | 0.0 | 0.0 | 0.00 | 0.00 | 0.00 | 58 | 1014.5 |
| 20260905112036 | 75 | 127 | 0.0 | 0.0 | 0.00 | 0.00 | 0.00 | 58 | 1014.4 |
| 20260905111553 | 75 | 127 | 0.0 | 0.0 | 0.00 | 0.00 | 0.00 | 59 | 1014.4 |
| 20260905111033 | 75 | 127 | 0.0 | 0.0 | 0.00 | 0.00 | 0.00 | 59 | 1014.5 |
| 20260905110533 | 75 | 127 | 0.0 | 0.0 | 0.00 | 0.00 | 0.00 | 59 | 1014.5 |
| 20260905110040 | 75 | 127 | 0.0 | 0.0 | 0.00 | 0.00 | 0.00 | 59 | 1014.4 |
| 20260905105533 | 75 | 127 | 0.0 | 0.0 | 0.00 | 0.00 | 0.00 | 60 | 1014.4 |
| 20260905105032 | 75 | 127 | 0.0 | 0.0 | 0.00 | 0.00 | 0.00 | 60 | 1014.4 |
| 20260905104531 | 75 | 127 | 0.0 | 0.0 | 0.00 | 0.00 | 0.00 | 61 | 1014.4 |
| 20260905104031 | 75 | 127 | 0.0 | 0.0 | 0.00 | 0.00 | 0.00 | 62 | 1014.3 |
| 20260905103532 | 75 | 127 | 0.0 | 0.0 | 0.00 | 0.00 | 0.00 | 62 | 1014.2 |
| 20260905103031 | 75 | 127 | 0.0 | 0.0 | 0.00 | 0.00 | 0.00 | 62 | 1014.3 |
| 20260905102530 | 75 | 127 | 0.0 | 1.0 | 0.00 | 0.00 | 0.00 | 63 | 1014.2 |
| 20260905102030 | 76 | 127 | 0.0 | 1.0 | 0.00 | 0.00 | 0.00 | 63 | 1014.3 |
| 20260905101545 | 76 | 127 | 0.0 | 1.0 | 0.00 | 0.00 | 0.00 | 63 | 1014.3 |
| 20260905101029 | 76 | 127 | 0.0 | 0.0 | 0.00 | 0.00 | 0.00 | 63 | 1014.3 |
| 20260905100528 | 76 | 127 | 0.0 | 0.0 | 0.00 | 0.00 | 0.00 | 64 | 1014.3 |
| 20260905100027 | 76 | 127 | 0.0 | 0.0 | 0.00 | 0.00 | 0.00 | 65 | 1014.3 |
| 20260905095528 | 76 | 127 | 0.0 | 0.0 | 0.00 | 0.00 | 0.00 | 66 | 1014.1 |
| 20260905095027 | 76 | 127 | 0.0 | 0.0 | 0.00 | 0.00 | 0.00 | 66 | 1014.2 |
| 20260905094527 | 76 | 127 | 0.0 | 0.0 | 0.00 | 0.00 | 0.00 | 67 | 1014.2 |
| 20260905094027 | 76 | 127 | 0.0 | 0.0 | 0.00 | 0.00 | 0.00 | 67 | 1014.2 |
| 20260905093526 | 76 | 127 | 0.0 | 0.0 | 0.00 | 0.00 | 0.00 | 67 | 1014.2 |
| 20260905093026 | 76 | 127 | 0.0 | 0.0 | 0.00 | 0.00 | 0.00 | 68 | 1014.1 |
| 20260905092525 | 76 | 127 | 0.0 | 0.0 | 0.00 | 0.00 | 0.00 | 69 | 1014.1 |
| 20260905092025 | 76 | 127 | 0.0 | 0.0 | 0.00 | 0.00 | 0.00 | 69 | 1014.2 |
| 20260905091526 | 76 | 127 | 0.0 | 0.0 | 0.00 | 0.00 | 0.00 | 69 | 1014.2 |
| 20260905091024 | 76 | 127 | 0.0 | 0.0 | 0.00 | 0.00 | 0.00 | 70 | 1014.2 |
| 20260905090524 | 76 | 127 | 0.0 | 0.0 | 0.00 | 0.00 | 0.00 | 70 | 1014.2 |
| 20260905090023 | 76 | 127 | 0.0 | 0.0 | 0.00 | 0.00 | 0.00 | 71 | 1014.2 |
| 20260905085521 | 76 | 127 | 0.0 | 0.0 | 0.00 | 0.00 | 0.00 | 71 | 1014.2 |
| 20260905085024 | 77 | 127 | 0.0 | 0.0 | 0.00 | 0.00 | 0.00 | 71 | 1014.3 |
| 20260905084521 | 77 | 127 | 0.0 | 0.0 | 0.00 | 0.00 | 0.00 | 71 | 1014.3 |
| 20260905084021 | 77 | 127 | 0.0 | 0.0 | 0.00 | 0.00 | 0.00 | 71 | 1014.2 |
| 20260905083520 | 77 | 127 | 0.0 | 0.0 | 0.00 | 0.00 | 0.00 | 71 | 1014.2 |
| 20260905083019 | 77 | 127 | 0.0 | 0.0 | 0.00 | 0.00 | 0.00 | 72 | 1014.3 |
| 20260905082518 | 77 | 127 | 0.0 | 0.0 | 0.00 | 0.00 | 0.00 | 72 | 1014.4 |
| 20260905082018 | 77 | 127 | 0.0 | 0.0 | 0.00 | 0.00 | 0.00 | 72 | 1014.3 |
| 20260905081517 | 77 | 127 | 0.0 | 1.0 | 0.00 | 0.00 | 0.00 | 72 | 1014.4 |
| 20260905081016 | 77 | 127 | 0.0 | 1.0 | 0.00 | 0.00 | 0.00 | 72 | 1014.4 |
| 20260905080516 | 77 | 127 | 0.0 | 4.0 | 0.00 | 0.00 | 0.00 | 72 | 1014.5 |
| 20260905080018 | 78 | 127 | 0.0 | 4.0 | 0.00 | 0.00 | 0.00 | 72 | 1014.5 |
| 20260905075515 | 78 | 127 | 0.0 | 3.0 | 0.00 | 0.00 | 0.00 | 72 | 1014.5 |
| 20260905075014 | 78 | 127 | 0.0 | 3.0 | 0.00 | 0.00 | 0.00 | 72 | 1014.5 |
| 20260905074519 | 78 | 127 | 0.0 | 4.0 | 0.00 | 0.00 | 0.00 | 72 | 1014.6 |
| 20260905074014 | 78 | 127 | 0.0 | 4.0 | 0.00 | 0.00 | 0.00 | 72 | 1014.6 |
| 20260905073513 | 78 | 127 | 0.0 | 2.0 | 0.00 | 0.00 | 0.00 | 72 | 1014.7 |
| 20260905073013 | 78 | 127 | 0.0 | 4.0 | 0.00 | 0.00 | 0.00 | 72 | 1014.7 |
| 20260905072513 | 78 | 127 | 1.0 | 4.0 | 0.00 | 0.00 | 0.00 | 72 | 1014.7 |
| 20260905072015 | 78 | 127 | 0.0 | 3.0 | 0.00 | 0.00 | 0.00 | 72 | 1014.8 |
| 20260905071518 | 78 | 127 | 0.0 | 5.0 | 0.00 | 0.00 | 0.00 | 72 | 1014.7 |
| 20260905071011 | 78 | 127 | 0.0 | 5.0 | 0.00 | 0.00 | 0.00 | 72 | 1014.8 |
| 20260905070511 | 78 | 128 | 0.0 | 0.0 | 0.00 | 0.00 | 0.00 | 72 | 1014.9 |
| 20260905070011 | 78 | 128 | 0.0 | 3.0 | 0.00 | 0.00 | 0.00 | 72 | 1014.9 |
| 20260905065512 | 78 | 128 | 0.0 | 3.0 | 0.00 | 0.00 | 0.00 | 72 | 1014.9 |
| 20260905065011 | 78 | 128 | 1.0 | 5.0 | 0.00 | 0.00 | 0.00 | 72 | 1014.9 |
| 20260905064514 | 78 | 128 | 1.0 | 5.0 | 0.00 | 0.00 | 0.00 | 72 | 1014.9 |
| 20260905064010 | 78 | 126 | 0.0 | 3.0 | 0.00 | 0.00 | 0.00 | 72 | 1014.9 |
| 20260905063509 | 78 | 126 | 0.0 | 3.0 | 0.00 | 0.00 | 0.00 | 72 | 1014.9 |
| 20260905063010 | 78 | 126 | 0.0 | 4.0 | 0.00 | 0.00 | 0.00 | 72 | 1014.9 |
| 20260905062514 | 78 | 126 | 0.0 | 5.0 | 0.00 | 0.00 | 0.00 | 72 | 1015.0 |
| 20260905062009 | 78 | 125 | 0.0 | 5.0 | 0.00 | 0.00 | 0.00 | 72 | 1015.0 |
| 20260905061513 | 78 | 125 | 1.0 | 5.0 | 0.00 | 0.00 | 0.00 | 72 | 1015.0 |
| 20260905061008 | 78 | 125 | 0.0 | 4.0 | 0.00 | 0.00 | 0.00 | 72 | 1014.9 |
| 20260905060508 | 78 | 124 | 1.0 | 4.0 | 0.00 | 0.00 | 0.00 | 71 | 1015.0 |
| 20260905060011 | 78 | 123 | 0.0 | 4.0 | 0.00 | 0.00 | 0.00 | 71 | 1015.0 |
| 20260905055506 | 77 | 123 | 1.0 | 5.0 | 0.00 | 0.00 | 0.00 | 71 | 1014.9 |
| 20260905055007 | 77 | 106 | 0.0 | 4.0 | 0.00 | 0.00 | 0.00 | 71 | 1015.0 |
| 20260905054509 | 77 | 104 | 0.0 | 5.0 | 0.00 | 0.00 | 0.00 | 71 | 1015.0 |
| 20260905054009 | 77 | 104 | 0.0 | 8.0 | 0.00 | 0.00 | 0.00 | 70 | 1015.0 |
| 20260905053505 | 77 | 104 | 0.0 | 8.0 | 0.00 | 0.00 | 0.00 | 70 | 1014.9 |
| 20260905053009 | 77 | 98 | 0.0 | 3.0 | 0.00 | 0.00 | 0.00 | 70 | 1015.0 |
| 20260905052505 | 77 | 97 | 0.0 | 5.0 | 0.00 | 0.00 | 0.00 | 70 | 1015.0 |
| 20260905052006 | 77 | 97 | 0.0 | 5.0 | 0.00 | 0.00 | 0.00 | 70 | 1015.0 |
| 20260905051504 | 77 | 97 | 0.0 | 3.0 | 0.00 | 0.00 | 0.00 | 70 | 1015.0 |
| 20260905051003 | 78 | 97 | 0.0 | 3.0 | 0.00 | 0.00 | 0.00 | 70 | 1015.0 |
| 20260905050502 | 78 | 97 | 0.0 | 3.0 | 0.00 | 0.00 | 0.00 | 70 | 1014.9 |
| 20260905050006 | 78 | 97 | 0.0 | 3.0 | 0.00 | 0.00 | 0.00 | 69 | 1014.9 |
| 20260905045503 | 78 | 97 | 0.0 | 3.0 | 0.00 | 0.00 | 0.00 | 69 | 1014.9 |
| 20260905045002 | 78 | 97 | 0.0 | 5.0 | 0.00 | 0.00 | 0.00 | 69 | 1014.9 |
| 20260905044502 | 78 | 97 | 0.0 | 5.0 | 0.00 | 0.00 | 0.00 | 69 | 1015.0 |
| 20260905044002 | 78 | 97 | 0.0 | 5.0 | 0.00 | 0.00 | 0.00 | 69 | 1015.0 |
| 20260905043501 | 78 | 97 | 0.0 | 5.0 | 0.00 | 0.00 | 0.00 | 69 | 1015.0 |
| 20260905043001 | 78 | 97 | 0.0 | 6.0 | 0.00 | 0.00 | 0.00 | 68 | 1015.0 |
| 20260905042500 | 78 | 97 | 0.0 | 6.0 | 0.00 | 0.00 | 0.00 | 69 | 1014.9 |
| 20260905042002 | 79 | 97 | 0.0 | 6.0 | 0.00 | 0.00 | 0.00 | 68 | 1014.9 |
| 20260905041605 | 79 | 97 | 0.0 | 6.0 | 0.00 | 0.00 | 0.00 | 68 | 1015.0 |
| 20260905041059 | 79 | 97 | 1.0 | 7.0 | 0.00 | 0.00 | 0.00 | 68 | 1014.9 |
| 20260905040559 | 79 | 97 | 1.0 | 7.0 | 0.00 | 0.00 | 0.00 | 68 | 1014.9 |
| 20260905040106 | 79 | 94 | 0.0 | 5.0 | 0.00 | 0.00 | 0.00 | 68 | 1014.9 |
| 20260905035602 | 79 | 94 | 0.0 | 5.0 | 0.00 | 0.00 | 0.00 | 68 | 1015.0 |
| 20260905035059 | 79 | 94 | 1.0 | 5.0 | 0.00 | 0.00 | 0.00 | 68 | 1015.0 |
| 20260905034616 | 79 | 94 | 0.0 | 5.0 | 0.00 | 0.00 | 0.00 | 67 | 1015.0 |
| 20260905034059 | 79 | 94 | 0.0 | 5.0 | 0.00 | 0.00 | 0.00 | 67 | 1015.0 |
| 20260905033559 | 79 | 94 | 0.0 | 3.0 | 0.00 | 0.00 | 0.00 | 67 | 1014.9 |
| 20260905033116 | 79 | 94 | 0.0 | 7.0 | 0.00 | 0.00 | 0.00 | 67 | 1014.8 |
| 20260905032559 | 79 | 94 | 0.0 | 7.0 | 0.00 | 0.00 | 0.00 | 67 | 1014.7 |
| 20260905032058 | 79 | 94 | 1.0 | 5.0 | 0.00 | 0.00 | 0.00 | 66 | 1014.7 |
| 20260905031612 | 80 | 94 | 0.0 | 5.0 | 0.00 | 0.00 | 0.00 | 66 | 1014.5 |
| 20260905031057 | 80 | 94 | 1.0 | 6.0 | 0.00 | 0.00 | 0.00 | 66 | 1014.5 |
| 20260905030558 | 80 | 94 | 2.0 | 6.0 | 0.00 | 0.00 | 0.00 | 66 | 1014.6 |
| 20260905025559 | 80 | 94 | 1.0 | 5.0 | 0.00 | 0.00 | 0.00 | 65 | 1014.5 |
| 20260905025057 | 81 | 94 | 2.0 | 5.0 | 0.00 | 0.00 | 0.00 | 65 | 1014.4 |
| 20260905024557 | 81 | 94 | 1.0 | 5.0 | 0.00 | 0.00 | 0.00 | 64 | 1014.4 |
| 20260905024057 | 81 | 94 | 0.0 | 5.0 | 0.00 | 0.00 | 0.00 | 64 | 1014.3 |
| 20260905023557 | 81 | 94 | 0.0 | 7.0 | 0.00 | 0.00 | 0.00 | 64 | 1014.2 |
| 20260905023124 | 81 | 94 | 2.0 | 8.0 | 0.00 | 0.00 | 0.00 | 64 | 1014.0 |
| 20260905022557 | 81 | 94 | 3.0 | 8.0 | 0.00 | 0.00 | 0.00 | 64 | 1014.0 |
| 20260905022056 | 81 | 95 | 4.0 | 9.0 | 0.00 | 0.00 | 0.00 | 63 | 1014.0 |
| 20260905021558 | 82 | 96 | 3.0 | 9.0 | 0.00 | 0.00 | 0.00 | 63 | 1013.9 |
| 20260905021056 | 82 | 98 | 3.0 | 9.0 | 0.00 | 0.00 | 0.00 | 63 | 1013.8 |
| 20260905020556 | 82 | 100 | 5.0 | 9.0 | 0.00 | 0.00 | 0.00 | 63 | 1013.8 |
| 20260905020056 | 82 | 92 | 3.0 | 10.0 | 0.00 | 0.00 | 0.00 | 62 | 1013.9 |
| 20260905015555 | 82 | 96 | 3.0 | 11.0 | 0.00 | 0.00 | 0.00 | 62 | 1013.9 |
| 20260905015057 | 82 | 100 | 2.0 | 11.0 | 0.00 | 0.00 | 0.00 | 62 | 1013.9 |
| 20260905014555 | 82 | 94 | 4.0 | 10.0 | 0.00 | 0.00 | 0.00 | 62 | 1013.8 |
| 20260905014058 | 82 | 98 | 2.0 | 10.0 | 0.00 | 0.00 | 0.00 | 62 | 1013.8 |
| 20260905013554 | 82 | 86 | 3.0 | 10.0 | 0.00 | 0.00 | 0.00 | 62 | 1013.7 |
| 20260905013054 | 82 | 88 | 4.0 | 10.0 | 0.00 | 0.00 | 0.00 | 61 | 1013.7 |
| 20260905012554 | 83 | 96 | 4.0 | 9.0 | 0.00 | 0.00 | 0.00 | 61 | 1013.6 |
| 20260905012057 | 83 | 100 | 4.0 | 8.0 | 0.00 | 0.00 | 0.00 | 61 | 1013.6 |
| 20260905011556 | 83 | 103 | 0.0 | 1.0 | 0.00 | 0.00 | 0.00 | 61 | 1013.6 |
| 20260905011056 | 83 | 102 | 0.0 | 2.0 | 0.00 | 0.00 | 0.00 | 60 | 1013.4 |
| 20260905010553 | 84 | 102 | 0.0 | 3.0 | 0.00 | 0.00 | 0.00 | 60 | 1013.4 |
| 20260905010105 | 84 | 102 | 0.0 | 5.0 | 0.00 | 0.00 | 0.00 | 59 | 1013.3 |
| 20260905005552 | 84 | 103 | 1.0 | 5.0 | 0.00 | 0.00 | 0.00 | 59 | 1013.2 |
| 20260905005055 | 85 | 102 | 0.0 | 2.0 | 0.00 | 0.00 | 0.00 | 58 | 1013.3 |
| 20260905004551 | 85 | 102 | 0.0 | 3.0 | 0.00 | 0.00 | 0.00 | 57 | 1013.3 |
| 20260905004052 | 85 | 103 | 0.0 | 3.0 | 0.00 | 0.00 | 0.00 | 57 | 1013.3 |
| 20260905003555 | 86 | 103 | 0.0 | 3.0 | 0.00 | 0.00 | 0.00 | 56 | 1013.3 |
| 20260905003052 | 86 | 103 | 0.0 | 3.0 | 0.00 | 0.00 | 0.00 | 56 | 1013.3 |
| 20260905002551 | 86 | 103 | 0.0 | 3.0 | 0.00 | 0.00 | 0.00 | 55 | 1013.3 |
| 20260905002051 | 86 | 103 | 0.0 | 5.0 | 0.00 | 0.00 | 0.00 | 55 | 1013.2 |
| 20260905001557 | 87 | 103 | 1.0 | 7.0 | 0.00 | 0.00 | 0.00 | 55 | 1013.1 |
| 20260905001050 | 87 | 104 | 2.0 | 13.0 | 0.00 | 0.00 | 0.00 | 54 | 1013.0 |
| 20260905000550 | 87 | 102 | 2.0 | 13.0 | 0.00 | 0.00 | 0.00 | 54 | 1012.8 |
| 20260905000100 | 87 | 103 | 2.0 | 10.0 | 0.00 | 0.00 | 0.00 | 53 | 1012.8 |
| 20260904235550 | 87 | 108 | 4.0 | 8.0 | 0.00 | 0.00 | 0.00 | 52 | 1012.7 |
| 20260904235049 | 87 | 111 | 2.0 | 8.0 | 0.00 | 0.00 | 0.00 | 52 | 1012.7 |
| 20260904234550 | 88 | 98 | 4.0 | 8.0 | 0.00 | 0.00 | 0.00 | 52 | 1012.7 |
| 20260904234049 | 88 | 109 | 2.0 | 7.0 | 0.00 | 0.00 | 0.00 | 50 | 1012.7 |
| 20260904233553 | 88 | 109 | 2.0 | 9.0 | 0.00 | 0.00 | 0.00 | 51 | 1012.6 |
| 20260904233050 | 88 | 108 | 2.0 | 9.0 | 0.00 | 0.00 | 0.00 | 50 | 1012.7 |
| 20260904232549 | 88 | 111 | 2.0 | 7.0 | 0.00 | 0.00 | 0.00 | 49 | 1012.7 |
| 20260904232052 | 88 | 111 | 1.0 | 10.0 | 0.00 | 0.00 | 0.00 | 48 | 1012.8 |
| 20260904231548 | 88 | 111 | 2.0 | 10.0 | 0.00 | 0.00 | 0.00 | 49 | 1012.8 |
| 20260904231047 | 88 | 103 | 5.0 | 9.0 | 0.00 | 0.00 | 0.00 | 49 | 1012.8 |